Location: Forst
(46.9333°N, 15.4333°E)
Time: 20:06:52
(UTC+00:00)

Cosmos 2112 Rocket - Pass Details

Date: 01 December 2020
Orbit: 756 x 787 km, 74.0° (Epoch: 27 January)

Event Time Altitude Azimuth Distance (km) Brightness Sun altitude
Rises 18:03:19 0° 204° (SSW) 3,231 7.6 -28.6°
Reaches altitude 10° 18:05:41 10° 206° (SSW) 2,314 6.8 -29.0°
Enters shadow 18:09:51 56° 222° (SW) 919 4.5 -29.7°
